Weather History for Hamilton, OH

Change the Weather History Date:

Thursday, February 27, 2014

  Actual Average (KCVG) Record (KCVG)
Temperature  
Mean Temperature 18 °F 38 °F  
Max Temperature 25 °F 47 °F 71 °F (1996)
Min Temperature 10 °F 29 °F -4 °F (1934)
Degree Days  
Heating Degree Days 46 27  
Month to date heating degree days 828  
Since 1 July heating degree days 3800  
Cooling Degree Days 0 0  
Month to date cooling degree days 0  
Year to date cooling degree days 0  
Moisture  
Dew Point 3 °F    
Average Humidity 50    
Maximum Humidity 70    
Minimum Humidity 34    
Precipitation  
Precipitation 0.00 in 0.10 in 1.90 in (1910)
Month to date precipitation 2.71  
Year to date precipitation 5.71  
Snow  
Snow 0.00 in 0.10 in 3.00 in (1905)
Month to date snowfall 6.3  
Since 1 July snowfall 18.4  
Snow Depth -    
Sea Level Pressure  
Sea Level Pressure 30.01 in    
Wind  
Wind Speed 10 mph (WNW)    
Max Wind Speed 21 mph    
Max Gust Speed 29 mph    
Visibility 10 miles    
Events      
T = Trace of Precipitation, MM = Missing Value Source: NWS Daily Summary

Daily Weather History Graph

Daily Weather History Graph

Search for Another Location

Airport:

Trip Planner

Search our weather history database for the weather conditions in past years. The results will help you decide how hot, cold, wet, or windy it might be!

Date:

Astronomy

Feb. 27, 2014 Rise Set
Actual Time 7:13 AM EST 6:28 PM EST
Civil Twilight 6:46 AM EST 6:55 PM EST
Nautical Twilight 6:15 AM EST 7:26 PM EST
Astronomical Twilight 5:44 AM EST 7:57 PM EST
Moon 5:45 AM EST (2/27) 4:53 PM EST (2/27)
Length of Visible Light 12h 08m
Length of Day
11h 14m
Waning Crescent, 4% of the Moon is Illuminated
Feb 27
Waning Crescent
Mar 1
New
Mar 8
First Quarter
Mar 16
Full
Mar 23
Last Quarter

Hourly Weather History & Observations

Time (EST) Temp. Windchill Dew Point Humidity Pressure Visibility Wind Dir Wind Speed Gust Speed Precip Events Conditions
12:53 AM 18.0 °F 7.7 °F 6.1 °F 60% 29.91 in 10.0 mi WSW 8.1 mph - N/A   Clear
1:53 AM 18.0 °F 7.7 °F 5.0 °F 57% 29.87 in 10.0 mi WSW 8.1 mph - N/A   Clear
2:53 AM 18.0 °F 6.9 °F 5.0 °F 57% 29.84 in 10.0 mi SW 9.2 mph - N/A   Clear
3:53 AM 18.0 °F 5.4 °F 6.1 °F 60% 29.82 in 10.0 mi SW 11.5 mph 18.4 mph N/A   Clear
4:53 AM 19.0 °F 8.2 °F 6.1 °F 57% 29.81 in 10.0 mi SW 9.2 mph 18.4 mph N/A   Clear
5:53 AM 19.9 °F 9.3 °F 6.1 °F 55% 29.82 in 10.0 mi WSW 9.2 mph - N/A   Mostly Cloudy
6:53 AM 19.0 °F 8.2 °F 8.1 °F 62% 29.83 in 10.0 mi WSW 9.2 mph - N/A   Clear
7:53 AM 21.0 °F 9.3 °F 9.0 °F 60% 29.86 in 10.0 mi West 11.5 mph 19.6 mph N/A   Scattered Clouds
8:53 AM 23.0 °F 8.0 °F 7.0 °F 50% 29.90 in 10.0 mi WNW 20.7 mph 28.8 mph N/A   Mostly Cloudy
9:53 AM 23.0 °F 8.7 °F -0.9 °F 35% 29.96 in 10.0 mi NW 18.4 mph 24.2 mph 0.00 in   Clear
10:53 AM 21.9 °F 8.7 °F 1.9 °F 42% 30.01 in 10.0 mi West 15.0 mph 27.6 mph 0.00 in   Clear
11:53 AM 24.1 °F 10.6 °F 3.9 °F 42% 30.04 in 10.0 mi NW 17.3 mph 25.3 mph N/A   Clear
12:53 PM 24.1 °F 10.6 °F 1.9 °F 38% 30.06 in 10.0 mi WNW 17.3 mph 26.5 mph N/A   Clear
1:53 PM 24.1 °F 13.7 °F 1.0 °F 37% 30.07 in 10.0 mi West 10.4 mph 25.3 mph N/A   Clear
2:53 PM 25.0 °F 13.6 °F 1.9 °F 37% 30.08 in 10.0 mi West 12.7 mph 20.7 mph N/A   Clear
3:53 PM 25.0 °F 15.5 °F -0.0 °F 34% 30.09 in 10.0 mi West 9.2 mph 20.7 mph N/A   Clear
4:53 PM 24.1 °F 11.5 °F 1.0 °F 37% 30.10 in 10.0 mi NW 15.0 mph 18.4 mph N/A   Clear
5:53 PM 21.9 °F 12.5 °F -0.0 °F 38% 30.11 in 10.0 mi NNW 8.1 mph - N/A   Clear
6:53 PM 19.0 °F 9.0 °F 1.0 °F 46% 30.14 in 10.0 mi NNW 8.1 mph - N/A   Clear
7:53 PM 18.0 °F 9.8 °F 1.9 °F 50% 30.17 in 10.0 mi North 5.8 mph - N/A   Clear
8:53 PM 16.0 °F 4.4 °F 1.0 °F 52% 30.19 in 10.0 mi North 9.2 mph - N/A   Clear
9:53 PM 14.0 °F 3.9 °F 3.0 °F 62% 30.20 in 10.0 mi North 6.9 mph - N/A   Clear
10:53 PM 12.9 °F 1.6 °F 3.0 °F 65% 30.22 in 10.0 mi North 8.1 mph - N/A   Clear
11:53 PM 10.9 °F 4.7 °F 3.0 °F 70% 30.23 in 10.0 mi NNE 3.5 mph - N/A   Clear